sat.trackr.live / text

‹ back to catalog

STARLINK-2589

NORAD 48371 · 2021-038U

PAYLOAD ACTIVE UNKNOWN

§ Identity

Operator
Country
US
Launch date
2021-05-04
Launch site
AFETR
Launch vehicle
Mass (kg)
RCS (m²)

Purposes: comms

External: N2YO · Heavens-Above · Gunter

§ Orbital elements

Epoch: 2026-05-24T23:00:36.226368Z

Period
94.01 min
Inclination
53.1613°
Eccentricity
0.0001328
Mean motion
15.31728709 rev/d
Perigee alt
469.7 km
Apogee alt
471.6 km
Semi-major
6,848.8 km
B*
2.1099e-4
RAAN
353.1687°
Arg perigee
87.9097°
Mean anomaly
272.2057°
Rev number
27,890

§ Raw data

STARLINK-25891 48371U 21038U   26144.95875262  .00006193  00000+0  21099-3 0  99902 48371  53.1613 353.1687 0001328  87.9097 272.2057 15.31728709278905

JSON: /api/v1/satellites/48371 · /tle

For live sub-satellite position, see the globe view (requires WebGL).

§ Visibility from observer

Set your observer location to see the next 7 days of passes ≥ 10°. The values pass through the URL so the page stays shareable.

No JS? Fill the form by hand. The geolocation button needs JavaScript.